Station Historical Data
Daily Summary for August 19, 2017 Units:  English    Metric   Both
« Previous Day
Next Day »
Daily Weekly Monthly Yearly Custom
  High: Low: Average:
Temperature: 76.7 °F 64.7 °F 70.5 °F
Dew Point: 64.8 °F 56.6 °F 61.3 °F
Humidity: 83% 62% 73%
Wind Speed: 14.0mph 0.0mph 4.9mph
Wind Gust: 22.0mph - -
Wind- - West
Pressure: 29.95 in 29.77 in -
Precipitation: 0.00 in    
Historical Graphs
 
 
Tabular Data for August 19, 2017
Time Temperature Dew Point Pressure Wind Wind Speed Wind Gust Humidity Rainfall Rate (Hourly)
00:04 72.2 °F 62.3 °F 29.80 in WSW 4.0 mph 8.0 mph 71% 0.00 in
00:09 72.1 °F 62.2 °F 29.80 in WSW 3.0 mph 7.0 mph 71% 0.00 in
00:14 72.1 °F 62.6 °F 29.80 in SW 2.0 mph 5.0 mph 72% 0.00 in
00:19 72.1 °F 62.6 °F 29.80 in WSW 3.0 mph 7.0 mph 72% 0.00 in
00:24 72.1 °F 62.6 °F 29.80 in WSW 3.0 mph 8.0 mph 72% 0.00 in
00:29 72.1 °F 62.2 °F 29.80 in NW 3.0 mph 10.0 mph 71% 0.00 in
00:34 72.1 °F 62.2 °F 29.80 in West 8.0 mph 8.0 mph 71% 0.00 in
00:39 72.1 °F 62.2 °F 29.80 in WNW 1.0 mph 10.0 mph 71% 0.00 in
00:44 72.1 °F 62.2 °F 29.80 in WNW 5.0 mph 8.0 mph 71% 0.00 in
00:49 72.1 °F 62.2 °F 29.80 in WNW 3.0 mph 10.0 mph 71% 0.00 in
00:54 72.1 °F 62.2 °F 29.80 in West 6.0 mph 9.0 mph 71% 0.00 in
00:59 72.1 °F 62.2 °F 29.80 in West 4.0 mph 9.0 mph 71% 0.00 in
01:04 72.1 °F 62.2 °F 29.80 in WSW 3.0 mph 7.0 mph 71% 0.00 in
01:09 72.1 °F 62.6 °F 29.80 in WSW 3.0 mph 4.0 mph 72% 0.00 in
01:14 72.1 °F 62.6 °F 29.80 in Calm   4.0 mph 72% 0.00 in
01:19 72.0 °F 62.5 °F 29.79 in West 1.0 mph 4.0 mph 72% 0.00 in
01:24 71.9 °F 62.8 °F 29.79 in West 2.0 mph 3.0 mph 73% 0.00 in
01:29 72.0 °F 62.9 °F 29.79 in WSW 4.0 mph 4.0 mph 73% 0.00 in
01:34 72.0 °F 63.6 °F 29.79 in WSW 2.0 mph 6.0 mph 75% 0.00 in
01:39 72.1 °F 64.1 °F 29.79 in WSW 2.0 mph 7.0 mph 76% 0.00 in
01:44 72.2 °F 64.6 °F 29.79 in WSW 4.0 mph 12.0 mph 77% 0.00 in
01:49 72.3 °F 64.3 °F 29.79 in WSW 6.0 mph 12.0 mph 76% 0.00 in
01:54 72.4 °F 64.4 °F 29.79 in SW 5.0 mph 8.0 mph 76% 0.00 in
01:59 72.5 °F 64.5 °F 29.78 in SW 3.0 mph 7.0 mph 76% 0.00 in
02:04 72.5 °F 64.5 °F 29.78 in West 5.0 mph 10.0 mph 76% 0.00 in
02:09 72.5 °F 64.1 °F 29.78 in West 5.0 mph 10.0 mph 75% 0.00 in
02:14 72.5 °F 64.1 °F 29.79 in West 7.0 mph 9.0 mph 75% 0.00 in
02:19 72.4 °F 64.0 °F 29.79 in WNW 6.0 mph 10.0 mph 75% 0.00 in
02:24 71.9 °F 63.5 °F 29.79 in West 9.0 mph 13.0 mph 75% 0.00 in
02:29 71.5 °F 63.2 °F 29.79 in WNW 7.0 mph 11.0 mph 75% 0.00 in
02:34 71.1 °F 62.8 °F 29.79 in West 7.0 mph 13.0 mph 75% 0.00 in
02:39 70.7 °F 62.8 °F 29.79 in WNW 7.0 mph 14.0 mph 76% 0.00 in
02:44 70.4 °F 62.5 °F 29.78 in WNW 6.0 mph 14.0 mph 76% 0.00 in
02:49 70.2 °F 62.3 °F 29.78 in West 5.0 mph 11.0 mph 76% 0.00 in
02:54 70.1 °F 62.2 °F 29.78 in West 5.0 mph 11.0 mph 76% 0.00 in
02:59 69.9 °F 62.0 °F 29.78 in West 5.0 mph 9.0 mph 76% 0.00 in
03:04 69.8 °F 61.9 °F 29.77 in WNW 11.0 mph 13.0 mph 76% 0.00 in
03:09 69.7 °F 61.8 °F 29.77 in West 5.0 mph 11.0 mph 76% 0.00 in
03:14 69.5 °F 61.6 °F 29.77 in WNW 8.0 mph 10.0 mph 76% 0.00 in
03:19 69.3 °F 61.8 °F 29.77 in NW 4.0 mph 10.0 mph 77% 0.00 in
03:24 69.1 °F 61.6 °F 29.77 in WSW 7.0 mph 10.0 mph 77% 0.00 in
03:29 69.0 °F 61.9 °F 29.77 in WNW 7.0 mph 11.0 mph 78% 0.00 in
03:34 68.8 °F 61.7 °F 29.77 in West 6.0 mph 11.0 mph 78% 0.00 in
03:39 68.6 °F 61.5 °F 29.77 in West 5.0 mph 11.0 mph 78% 0.00 in
03:44 68.5 °F 61.4 °F 29.77 in West 5.0 mph 11.0 mph 78% 0.00 in
03:49 68.4 °F 61.6 °F 29.77 in WNW 5.0 mph 9.0 mph 79% 0.00 in
03:54 68.2 °F 61.4 °F 29.77 in West 3.0 mph 9.0 mph 79% 0.00 in
03:59 68.1 °F 61.3 °F 29.77 in WNW 4.0 mph 10.0 mph 79% 0.00 in
04:04 68.0 °F 61.6 °F 29.77 in West 4.0 mph 10.0 mph 80% 0.00 in
04:09 68.0 °F 61.6 °F 29.77 in West 3.0 mph 9.0 mph 80% 0.00 in
04:14 67.9 °F 61.5 °F 29.77 in West 7.0 mph 12.0 mph 80% 0.00 in
04:19 67.9 °F 61.5 °F 29.77 in WSW 5.0 mph 11.0 mph 80% 0.00 in
04:24 67.7 °F 61.3 °F 29.78 in SW 2.0 mph 9.0 mph 80% 0.00 in
04:29 67.7 °F 61.3 °F 29.78 in NW 1.0 mph 5.0 mph 80% 0.00 in
04:34 67.6 °F 61.2 °F 29.78 in West 4.0 mph 9.0 mph 80% 0.00 in
04:39 67.5 °F 61.1 °F 29.78 in West 4.0 mph 9.0 mph 80% 0.00 in
04:44 67.5 °F 61.1 °F 29.78 in West 4.0 mph 10.0 mph 80% 0.00 in
04:49 67.4 °F 61.0 °F 29.78 in West 6.0 mph 10.0 mph 80% 0.00 in
04:54 67.2 °F 60.8 °F 29.78 in NW 1.0 mph 7.0 mph 80% 0.00 in
04:59 67.1 °F 61.1 °F 29.78 in WNW 5.0 mph 9.0 mph 81% 0.00 in
05:04 67.0 °F 61.0 °F 29.78 in West 5.0 mph 9.0 mph 81% 0.00 in
05:09 66.8 °F 60.8 °F 29.78 in West 4.0 mph 11.0 mph 81% 0.00 in
05:14 66.8 °F 60.8 °F 29.78 in West 4.0 mph 11.0 mph 81% 0.00 in
05:19 66.7 °F 60.7 °F 29.78 in West 5.0 mph 9.0 mph 81% 0.00 in
05:24 66.7 °F 60.7 °F 29.78 in WNW 6.0 mph 8.0 mph 81% 0.00 in
05:29 66.6 °F 60.6 °F 29.78 in West 10.0 mph 11.0 mph 81% 0.00 in
05:34 66.6 °F 60.6 °F 29.78 in SW 4.0 mph 10.0 mph 81% 0.00 in
05:39 66.5 °F 60.5 °F 29.78 in West 5.0 mph 12.0 mph 81% 0.00 in
05:44 66.5 °F 60.5 °F 29.79 in West 5.0 mph 12.0 mph 81% 0.00 in
05:49 66.5 °F 60.5 °F 29.79 in West 5.0 mph 9.0 mph 81% 0.00 in
05:54 66.5 °F 60.1 °F 29.79 in West 5.0 mph 10.0 mph 80% 0.00 in
06:04 66.7 °F 60.3 °F 29.80 in WNW 5.0 mph 6.0 mph 80% 0.00 in
06:09 66.6 °F 60.2 °F 29.80 in West 4.0 mph 11.0 mph 80% 0.00 in
06:14 66.7 °F 60.0 °F 29.80 in West 5.0 mph 11.0 mph 79% 0.00 in
06:19 66.7 °F 60.0 °F 29.80 in West 5.0 mph 11.0 mph 79% 0.00 in
06:24 66.7 °F 60.0 °F 29.80 in WNW 5.0 mph 10.0 mph 79% 0.00 in
06:29 66.8 °F 60.1 °F 29.80 in West 5.0 mph 7.0 mph 79% 0.00 in
06:34 66.8 °F 60.1 °F 29.80 in WSW 4.0 mph 8.0 mph 79% 0.00 in
06:39 66.8 °F 60.1 °F 29.80 in West 4.0 mph 9.0 mph 79% 0.00 in
06:44 66.8 °F 60.1 °F 29.80 in West 4.0 mph 9.0 mph 79% 0.00 in
06:49 66.8 °F 60.1 °F 29.80 in West 6.0 mph 7.0 mph 79% 0.00 in
06:54 66.9 °F 60.2 °F 29.81 in WSW 2.0 mph 9.0 mph 79% 0.00 in
06:59 66.8 °F 60.1 °F 29.81 in SW 3.0 mph 8.0 mph 79% 0.00 in
07:04 66.9 °F 60.2 °F 29.81 in West 3.0 mph 7.0 mph 79% 0.00 in
07:09 66.9 °F 59.8 °F 29.81 in West 4.0 mph 9.0 mph 78% 0.00 in
07:14 66.9 °F 59.8 °F 29.81 in West 4.0 mph 9.0 mph 78% 0.00 in
07:19 67.0 °F 59.9 °F 29.81 in West 4.0 mph 9.0 mph 78% 0.00 in
07:24 67.0 °F 59.9 °F 29.81 in West 4.0 mph 9.0 mph 78% 0.00 in
07:29 67.1 °F 59.6 °F 29.81 in West 2.0 mph 6.0 mph 77% 0.00 in
07:34 67.1 °F 59.6 °F 29.82 in WSW 4.0 mph 7.0 mph 77% 0.00 in
07:39 67.1 °F 59.3 °F 29.81 in WSW 1.0 mph 7.0 mph 76% 0.00 in
07:44 67.2 °F 59.4 °F 29.82 in WSW 4.0 mph 8.0 mph 76% 0.00 in
07:49 67.4 °F 59.6 °F 29.82 in West 3.0 mph 8.0 mph 76% 0.00 in
07:54 67.5 °F 59.3 °F 29.82 in West 3.0 mph 7.0 mph 75% 0.00 in
07:59 67.6 °F 59.4 °F 29.82 in West 2.0 mph 8.0 mph 75% 0.00 in
08:04 67.5 °F 59.3 °F 29.82 in West 3.0 mph 10.0 mph 75% 0.00 in
08:09 67.4 °F 59.6 °F 29.82 in West 3.0 mph 5.0 mph 76% 0.00 in
08:14 67.4 °F 59.6 °F 29.82 in West 3.0 mph 6.0 mph 76% 0.00 in
08:19 67.4 °F 59.6 °F 29.82 in WSW 3.0 mph 6.0 mph 76% 0.00 in
08:24 67.4 °F 59.6 °F 29.82 in Calm   6.0 mph 76% 0.00 in
08:29 67.6 °F 59.4 °F 29.83 in SW 3.0 mph 8.0 mph 75% 0.00 in
08:34 67.9 °F 59.3 °F 29.83 in WNW 5.0 mph 7.0 mph 74% 0.00 in
08:39 67.9 °F 59.7 °F 29.82 in West 2.0 mph 8.0 mph 75% 0.00 in
08:44 67.9 °F 59.3 °F 29.83 in WNW 3.0 mph 8.0 mph 74% 0.00 in
08:49 68.9 °F 60.3 °F 29.83 in West 3.0 mph 8.0 mph 74% 0.00 in
08:54 69.6 °F 59.8 °F 29.83 in West 3.0 mph 8.0 mph 71% 0.00 in
08:59 69.8 °F 59.6 °F 29.83 in WNW 4.0 mph 9.0 mph 70% 0.00 in
09:04 69.5 °F 59.3 °F 29.83 in West 4.0 mph 7.0 mph 70% 0.00 in
09:09 69.5 °F 59.7 °F 29.83 in WNW 5.0 mph 8.0 mph 71% 0.00 in
09:14 69.4 °F 59.2 °F 29.83 in WSW 4.0 mph 11.0 mph 70% 0.00 in
09:19 69.5 °F 59.3 °F 29.83 in WSW 4.0 mph 11.0 mph 70% 0.00 in
09:24 69.5 °F 59.3 °F 29.84 in WSW 4.0 mph 8.0 mph 70% 0.00 in
09:29 69.7 °F 59.5 °F 29.84 in WSW 4.0 mph 8.0 mph 70% 0.00 in
09:34 69.9 °F 59.7 °F 29.84 in WSW 4.0 mph 9.0 mph 70% 0.00 in
09:39 70.6 °F 59.9 °F 29.84 in West 4.0 mph 9.0 mph 69% 0.00 in
09:44 71.4 °F 60.7 °F 29.84 in WNW 1.0 mph 7.0 mph 69% 0.00 in
09:49 72.0 °F 60.4 °F 29.84 in WNW 5.0 mph 9.0 mph 67% 0.00 in
09:54 72.3 °F 60.3 °F 29.84 in WSW 4.0 mph 8.0 mph 66% 0.00 in
09:59 72.1 °F 58.8 °F 29.84 in WSW 6.0 mph 10.0 mph 63% 0.00 in
10:04 72.4 °F 60.0 °F 29.84 in SSW 7.0 mph 8.0 mph 65% 0.00 in
10:09 72.2 °F 58.9 °F 29.84 in West 5.0 mph 10.0 mph 63% 0.00 in
10:14 72.2 °F 60.2 °F 29.84 in West 2.0 mph 10.0 mph 66% 0.00 in
10:19 72.3 °F 60.7 °F 29.84 in WSW 6.0 mph 11.0 mph 67% 0.00 in
10:24 72.2 °F 61.0 °F 29.84 in WSW 5.0 mph 11.0 mph 68% 0.00 in
10:29 71.7 °F 61.4 °F 29.84 in WSW 6.0 mph 12.0 mph 70% 0.00 in
10:34 71.5 °F 61.6 °F 29.84 in WSW 7.0 mph 12.0 mph 71% 0.00 in
10:39 72.1 °F 61.8 °F 29.84 in SW 6.0 mph 13.0 mph 70% 0.00 in
10:44 73.8 °F 63.4 °F 29.83 in WSW 5.0 mph 8.0 mph 70% 0.00 in
10:49 73.4 °F 61.8 °F 29.84 in WSW 5.0 mph 12.0 mph 67% 0.00 in
10:54 72.4 °F 61.2 °F 29.84 in WSW 6.0 mph 12.0 mph 68% 0.00 in
10:59 72.7 °F 61.5 °F 29.84 in WSW 11.0 mph 13.0 mph 68% 0.00 in
11:04 72.5 °F 61.3 °F 29.84 in WNW 7.0 mph 16.0 mph 68% 0.00 in
11:09 72.9 °F 62.5 °F 29.84 in SW 14.0 mph 15.0 mph 70% 0.00 in
11:14 73.4 °F 62.2 °F 29.84 in SW 6.0 mph 14.0 mph 68% 0.00 in
11:19 73.3 °F 62.1 °F 29.85 in WSW 6.0 mph 14.0 mph 68% 0.00 in
11:24 72.7 °F 61.1 °F 29.85 in WSW 7.0 mph 15.0 mph 67% 0.00 in
11:29 73.5 °F 61.4 °F 29.85 in WSW 8.0 mph 15.0 mph 66% 0.00 in
11:34 74.0 °F 61.9 °F 29.85 in WSW 8.0 mph 17.0 mph 66% 0.00 in
11:39 74.2 °F 61.7 °F 29.85 in WSW 8.0 mph 17.0 mph 65% 0.00 in
11:44 74.1 °F 61.1 °F 29.85 in WNW 13.0 mph 21.0 mph 64% 0.00 in
11:49 73.8 °F 60.9 °F 29.85 in West 5.0 mph 18.0 mph 64% 0.00 in
11:54 74.2 °F 61.7 °F 29.85 in WSW 8.0 mph 18.0 mph 65% 0.00 in
11:59 74.1 °F 62.0 °F 29.85 in WSW 7.0 mph 16.0 mph 66% 0.00 in
12:04 73.9 °F 61.4 °F 29.85 in WSW 7.0 mph 14.0 mph 65% 0.00 in
12:09 75.0 °F 62.9 °F 29.85 in West 9.0 mph 16.0 mph 66% 0.00 in
12:14 75.5 °F 63.8 °F 29.84 in NW 10.0 mph 13.0 mph 67% 0.00 in
12:19 76.0 °F 63.8 °F 29.84 in SW 4.0 mph 10.0 mph 66% 0.00 in
12:24 75.1 °F 62.1 °F 29.84 in WSW 7.0 mph 18.0 mph 64% 0.00 in
12:29 74.4 °F 61.9 °F 29.84 in SW 7.0 mph 14.0 mph 65% 0.00 in
12:34 75.2 °F 63.1 °F 29.84 in SW 9.0 mph 9.0 mph 66% 0.00 in
12:39 74.9 °F 62.8 °F 29.84 in SW 4.0 mph 17.0 mph 66% 0.00 in
12:44 75.0 °F 62.9 °F 29.84 in WSW 9.0 mph 17.0 mph 66% 0.00 in
12:49 74.7 °F 63.4 °F 29.84 in WSW 9.0 mph 17.0 mph 68% 0.00 in
12:54 74.3 °F 63.1 °F 29.84 in West 12.0 mph 16.0 mph 68% 0.00 in
12:59 73.9 °F 63.1 °F 29.84 in WSW 8.0 mph 17.0 mph 69% 0.00 in
13:04 73.9 °F 62.2 °F 29.84 in WSW 8.0 mph 17.0 mph 67% 0.00 in
13:09 74.0 °F 63.2 °F 29.84 in WSW 8.0 mph 16.0 mph 69% 0.00 in
13:14 73.8 °F 61.7 °F 29.84 in WSW 8.0 mph 17.0 mph 66% 0.00 in
13:19 74.0 °F 62.3 °F 29.84 in WSW 8.0 mph 17.0 mph 67% 0.00 in
13:24 74.2 °F 62.5 °F 29.83 in West 5.0 mph 13.0 mph 67% 0.00 in
13:29 73.9 °F 62.7 °F 29.83 in WSW 14.0 mph 14.0 mph 68% 0.00 in
13:34 73.8 °F 62.6 °F 29.84 in WSW 3.0 mph 15.0 mph 68% 0.00 in
13:39 74.0 °F 63.2 °F 29.83 in SSW 7.0 mph 16.0 mph 69% 0.00 in
13:44 74.4 °F 63.1 °F 29.83 in SW 8.0 mph 16.0 mph 68% 0.00 in
13:49 75.0 °F 63.7 °F 29.84 in West 8.0 mph 12.0 mph 68% 0.00 in
13:54 75.9 °F 62.8 °F 29.84 in WSW 6.0 mph 18.0 mph 64% 0.00 in
13:59 75.2 °F 63.1 °F 29.83 in SW 9.0 mph 18.0 mph 66% 0.00 in
14:04 74.2 °F 63.0 °F 29.83 in SW 9.0 mph 17.0 mph 68% 0.00 in
14:09 73.9 °F 62.7 °F 29.84 in WSW 9.0 mph 15.0 mph 68% 0.00 in
14:14 73.9 °F 63.5 °F 29.84 in West 7.0 mph 13.0 mph 70% 0.00 in
14:19 74.0 °F 63.2 °F 29.84 in SW 7.0 mph 12.0 mph 69% 0.00 in
14:24 75.8 °F 64.1 °F 29.84 in SW 8.0 mph 14.0 mph 67% 0.00 in
14:29 76.3 °F 63.2 °F 29.84 in SW 7.0 mph 17.0 mph 64% 0.00 in
14:34 75.9 °F 62.8 °F 29.83 in WSW 8.0 mph 17.0 mph 64% 0.00 in
14:39 75.7 °F 62.7 °F 29.83 in WSW 8.0 mph 18.0 mph 64% 0.00 in
14:44 76.3 °F 62.8 °F 29.83 in WSW 9.0 mph 17.0 mph 63% 0.00 in
14:49 76.2 °F 63.1 °F 29.83 in SSW 5.0 mph 16.0 mph 64% 0.00 in
14:54 75.9 °F 63.3 °F 29.83 in SW 10.0 mph 18.0 mph 65% 0.00 in
14:59 76.5 °F 63.9 °F 29.82 in SW 9.0 mph 22.0 mph 65% 0.00 in
15:04 76.1 °F 63.5 °F 29.82 in SW 8.0 mph 22.0 mph 65% 0.00 in
15:09 76.6 °F 64.0 °F 29.82 in West 8.0 mph 12.0 mph 65% 0.00 in
15:14 76.7 °F 63.6 °F 29.82 in SW 8.0 mph 12.0 mph 64% 0.00 in
15:19 76.4 °F 63.8 °F 29.82 in WSW 13.0 mph 16.0 mph 65% 0.00 in
15:24 76.6 °F 63.5 °F 29.82 in SW 7.0 mph 16.0 mph 64% 0.00 in
15:29 76.1 °F 62.1 °F 29.82 in WSW 8.0 mph 16.0 mph 62% 0.00 in
15:34 76.4 °F 63.8 °F 29.82 in WSW 9.0 mph 16.0 mph 65% 0.00 in
15:39 75.9 °F 63.7 °F 29.83 in WSW 9.0 mph 18.0 mph 66% 0.00 in
15:44 76.2 °F 63.6 °F 29.83 in WSW 9.0 mph 18.0 mph 65% 0.00 in
15:49 75.2 °F 63.5 °F 29.83 in WSW 8.0 mph 18.0 mph 67% 0.00 in
15:54 75.4 °F 63.2 °F 29.82 in WSW 9.0 mph 19.0 mph 66% 0.00 in
15:59 76.1 °F 63.9 °F 29.82 in WSW 7.0 mph 13.0 mph 66% 0.00 in
16:04 76.2 °F 63.1 °F 29.83 in WNW 10.0 mph 17.0 mph 64% 0.00 in
16:09 75.9 °F 63.3 °F 29.83 in WNW 6.0 mph 19.0 mph 65% 0.00 in
16:14 75.7 °F 64.0 °F 29.82 in WSW 9.0 mph 19.0 mph 67% 0.00 in
16:19 76.3 °F 64.5 °F 29.82 in West 10.0 mph 18.0 mph 67% 0.00 in
16:24 76.6 °F 64.4 °F 29.83 in SW 4.0 mph 13.0 mph 66% 0.00 in
16:29 75.5 °F 63.3 °F 29.82 in WSW 13.0 mph 15.0 mph 66% 0.00 in
16:34 74.3 °F 63.5 °F 29.82 in WSW 8.0 mph 17.0 mph 69% 0.00 in
16:39 73.5 °F 63.5 °F 29.82 in WSW 8.0 mph 17.0 mph 71% 0.00 in
16:44 73.0 °F 63.4 °F 29.82 in WSW 8.0 mph 16.0 mph 72% 0.00 in
16:49 72.7 °F 63.5 °F 29.82 in West 8.0 mph 15.0 mph 73% 0.00 in
16:54 72.3 °F 63.2 °F 29.82 in West 8.0 mph 13.0 mph 73% 0.00 in
16:59 72.1 °F 62.2 °F 29.82 in SW 7.0 mph 10.0 mph 71% 0.00 in
17:04 72.2 °F 61.0 °F 29.83 in WSW 5.0 mph 10.0 mph 68% 0.00 in
17:09 72.5 °F 60.9 °F 29.83 in WSW 6.0 mph 11.0 mph 67% 0.00 in
17:14 72.8 °F 61.6 °F 29.82 in WSW 6.0 mph 11.0 mph 68% 0.00 in
17:19 73.4 °F 63.0 °F 29.82 in WNW 7.0 mph 11.0 mph 70% 0.00 in
17:24 74.0 °F 64.0 °F 29.82 in WSW 7.0 mph 13.0 mph 71% 0.00 in
17:29 74.4 °F 64.4 °F 29.82 in WNW 4.0 mph 13.0 mph 71% 0.00 in
17:34 75.0 °F 64.1 °F 29.82 in WSW 6.0 mph 14.0 mph 69% 0.00 in
17:39 74.6 °F 64.2 °F 29.82 in WSW 6.0 mph 15.0 mph 70% 0.00 in
17:44 73.7 °F 63.7 °F 29.82 in WSW 6.0 mph 15.0 mph 71% 0.00 in
17:49 73.2 °F 62.8 °F 29.82 in WSW 7.0 mph 13.0 mph 70% 0.00 in
17:54 72.9 °F 62.5 °F 29.83 in West 3.0 mph 11.0 mph 70% 0.00 in
17:59 72.5 °F 62.2 °F 29.83 in WSW 7.0 mph 14.0 mph 70% 0.00 in
18:04 72.1 °F 63.4 °F 29.83 in WSW 6.0 mph 14.0 mph 74% 0.00 in
18:09 71.8 °F 64.2 °F 29.83 in WSW 4.0 mph 8.0 mph 77% 0.00 in
18:14 71.2 °F 64.4 °F 29.83 in West 5.0 mph 12.0 mph 79% 0.01 in
18:19 70.5 °F 64.4 °F 29.83 in West 5.0 mph 12.0 mph 81% 0.01 in
18:24 70.1 °F 64.3 °F 29.83 in West 1.0 mph 7.0 mph 82% 0.01 in
18:29 70.2 °F 64.8 °F 29.84 in NNE 2.0 mph 5.0 mph 83% 0.01 in
18:34 69.7 °F 64.0 °F 29.84 in NW 2.0 mph 6.0 mph 82% 0.01 in
18:39 69.1 °F 63.4 °F 29.84 in NNW 1.0 mph 6.0 mph 82% 0.01 in
18:44 69.3 °F 63.9 °F 29.84 in Calm   2.0 mph 83% 0.01 in
18:49 69.5 °F 63.8 °F 29.84 in Calm   4.0 mph 82% 0.01 in
18:54 70.1 °F 64.7 °F 29.84 in West 2.0 mph 4.0 mph 83% 0.01 in
18:59 70.2 °F 64.4 °F 29.84 in Calm   3.0 mph 82% 0.01 in
19:04 70.1 °F 64.3 °F 29.85 in Calm   2.0 mph 82% 0.01 in
19:09 70.3 °F 64.2 °F 29.85 in Calm   3.0 mph 81% 0.01 in
19:14 70.2 °F 63.0 °F 29.85 in NW 2.0 mph 8.0 mph 78% 0.00 in
19:19 70.1 °F 62.6 °F 29.85 in NW 3.0 mph 8.0 mph 77% 0.00 in
19:24 69.7 °F 61.0 °F 29.85 in WNW 3.0 mph 8.0 mph 74% 0.00 in
19:29 69.4 °F 60.4 °F 29.85 in WNW 3.0 mph 7.0 mph 73% 0.00 in
19:34 69.2 °F 60.2 °F 29.86 in West 3.0 mph 6.0 mph 73% 0.00 in
19:39 69.0 °F 60.0 °F 29.86 in WNW 4.0 mph 7.0 mph 73% 0.00 in
19:44 68.8 °F 60.2 °F 29.86 in West 1.0 mph 4.0 mph 74% 0.00 in
19:49 68.8 °F 60.2 °F 29.86 in West 3.0 mph 6.0 mph 74% 0.00 in
19:54 68.7 °F 60.1 °F 29.87 in West 5.0 mph 9.0 mph 74% 0.00 in
19:59 68.7 °F 60.1 °F 29.87 in West 7.0 mph 7.0 mph 74% 0.00 in
20:04 68.7 °F 59.7 °F 29.87 in NW 5.0 mph 8.0 mph 73% 0.00 in
20:09 68.7 °F 59.7 °F 29.87 in WNW 5.0 mph 11.0 mph 73% 0.00 in
20:14 68.6 °F 59.2 °F 29.88 in West 5.0 mph 11.0 mph 72% 0.00 in
20:19 68.6 °F 59.2 °F 29.88 in West 5.0 mph 10.0 mph 72% 0.00 in
20:24 68.6 °F 59.2 °F 29.88 in West 5.0 mph 11.0 mph 72% 0.00 in
20:29 68.5 °F 59.1 °F 29.88 in West 5.0 mph 11.0 mph 72% 0.00 in
20:34 68.4 °F 58.6 °F 29.88 in West 2.0 mph 8.0 mph 71% 0.00 in
20:39 68.4 °F 58.6 °F 29.88 in West 5.0 mph 9.0 mph 71% 0.00 in
20:44 68.3 °F 58.5 °F 29.89 in West 4.0 mph 7.0 mph 71% 0.00 in
20:49 68.2 °F 58.8 °F 29.89 in West 3.0 mph 6.0 mph 72% 0.00 in
20:54 68.1 °F 58.7 °F 29.89 in WNW 2.0 mph 8.0 mph 72% 0.00 in
20:59 67.9 °F 58.5 °F 29.89 in WNW 3.0 mph 6.0 mph 72% 0.00 in
21:04 67.9 °F 58.5 °F 29.89 in WNW 3.0 mph 7.0 mph 72% 0.00 in
21:09 67.8 °F 58.4 °F 29.90 in West 3.0 mph 7.0 mph 72% 0.00 in
21:14 67.7 °F 58.3 °F 29.90 in West 2.0 mph 5.0 mph 72% 0.00 in
21:19 67.6 °F 58.2 °F 29.90 in West 3.0 mph 5.0 mph 72% 0.00 in
21:24 67.5 °F 58.5 °F 29.90 in West 3.0 mph 6.0 mph 73% 0.00 in
21:29 67.4 °F 58.4 °F 29.90 in West 1.0 mph 7.0 mph 73% 0.00 in
21:34 67.1 °F 58.5 °F 29.90 in West 3.0 mph 5.0 mph 74% 0.00 in
21:39 66.9 °F 58.3 °F 29.91 in West 3.0 mph 6.0 mph 74% 0.00 in
21:44 66.8 °F 58.2 °F 29.91 in West 3.0 mph 6.0 mph 74% 0.00 in
21:49 66.7 °F 58.1 °F 29.91 in West 2.0 mph 7.0 mph 74% 0.00 in
21:54 66.6 °F 58.4 °F 29.91 in West 3.0 mph 4.0 mph 75% 0.00 in
21:59 66.4 °F 58.2 °F 29.91 in WSW 3.0 mph 5.0 mph 75% 0.00 in
22:04 66.3 °F 58.1 °F 29.91 in West 3.0 mph 4.0 mph 75% 0.00 in
22:09 66.3 °F 58.1 °F 29.91 in Calm   3.0 mph 75% 0.00 in
22:14 66.2 °F 58.0 °F 29.92 in Calm   3.0 mph 75% 0.00 in
22:19 66.1 °F 57.9 °F 29.92 in Calm     75% 0.00 in
22:24 65.9 °F 58.1 °F 29.92 in Calm     76% 0.00 in
22:29 65.9 °F 58.1 °F 29.92 in Calm     76% 0.00 in
22:34 65.9 °F 58.1 °F 29.92 in West 2.0 mph 5.0 mph 76% 0.00 in
22:39 65.8 °F 58.0 °F 29.92 in Calm   5.0 mph 76% 0.00 in
22:44 65.8 °F 58.0 °F 29.92 in West 1.0 mph 5.0 mph 76% 0.00 in
22:49 66.0 °F 58.2 °F 29.92 in West 1.0 mph 5.0 mph 76% 0.00 in
22:54 66.0 °F 58.2 °F 29.92 in West 1.0 mph 4.0 mph 76% 0.00 in
22:59 65.9 °F 58.1 °F 29.92 in West 2.0 mph 6.0 mph 76% 0.00 in
23:04 65.9 °F 57.7 °F 29.92 in West 2.0 mph 6.0 mph 75% 0.00 in
23:09 65.8 °F 58.0 °F 29.92 in West 2.0 mph 3.0 mph 76% 0.00 in
23:14 65.6 °F 57.8 °F 29.93 in West 1.0 mph 5.0 mph 76% 0.00 in
23:24 65.3 °F 57.5 °F 29.93 in West 2.0 mph 5.0 mph 76% 0.00 in
23:29 65.2 °F 57.4 °F 29.94 in West 3.0 mph 7.0 mph 76% 0.00 in
23:34 65.2 °F 57.1 °F 29.94 in SW 3.0 mph 9.0 mph 75% 0.00 in
23:39 65.2 °F 57.1 °F 29.94 in WNW 1.0 mph 6.0 mph 75% 0.00 in
23:44 65.0 °F 56.9 °F 29.94 in West 3.0 mph 6.0 mph 75% 0.00 in
23:49 64.9 °F 56.8 °F 29.94 in West 3.0 mph 6.0 mph 75% 0.00 in
23:54 64.8 °F 56.7 °F 29.94 in West 3.0 mph 7.0 mph 75% 0.00 in
23:59 64.7 °F 56.6 °F 29.95 in West 3.0 mph 7.0 mph 75% 0.00 in
Buffalo, New York, USA
Compliments of Weather Underground - 2.5 mb